| time (UTC) | temp F | wind direction | speed MPH | gust MPH | rain 1hr in | rain 24hr in | rain mn in | humidity % | barometer mb |
| 20260505080027 | 50 | 274 | 0.0 | 0.0 | 0.00 | 0.00 | 0.00 | 92 | 996.5 |
| 20260505074521 | 51 | 274 | 0.0 | 0.0 | 0.00 | 0.00 | 0.00 | 92 | 996.5 |
| 20260505073018 | 52 | 274 | 0.0 | 0.0 | 0.00 | 0.00 | 0.00 | 92 | 996.2 |
| 20260505071514 | 53 | 274 | 0.0 | 0.0 | 0.00 | 0.00 | 0.00 | 91 | 996.1 |
| 20260505070013 | 53 | 273 | 0.0 | 0.0 | 0.00 | 0.00 | 0.00 | 91 | 996.0 |
| 20260505064511 | 54 | 271 | 0.0 | 0.0 | 0.00 | 0.00 | 0.00 | 90 | 995.7 |
| 20260505063009 | 54 | 294 | 0.0 | 0.0 | 0.00 | 0.00 | 0.00 | 89 | 995.5 |
| 20260505061507 | 55 | 259 | 0.0 | 0.0 | 0.00 | 0.00 | 0.00 | 89 | 995.5 |
| 20260505060018 | 56 | 272 | 0.0 | 0.0 | 0.00 | 0.00 | 0.00 | 88 | 995.2 |
| 20260505054504 | 56 | 271 | 0.0 | 0.0 | 0.00 | 0.00 | 0.00 | 87 | 995.3 |
| 20260505053003 | 57 | 260 | 0.0 | 0.0 | 0.00 | 0.00 | 0.00 | 86 | 995.0 |
| 20260505051502 | 58 | 253 | 0.0 | 0.0 | 0.00 | 0.00 | 0.00 | 86 | 995.0 |
| 20260505041600 | 62 | 243 | 0.0 | 0.0 | 0.00 | 0.00 | 0.00 | 81 | 994.5 |
| 20260505040104 | 63 | 229 | 0.0 | 0.0 | 0.00 | 0.00 | 0.00 | 79 | 994.2 |
| 20260505034559 | 64 | 233 | 0.0 | 0.0 | 0.00 | 0.00 | 0.00 | 77 | 994.1 |
| 20260505033115 | 66 | 266 | 0.0 | 0.0 | 0.00 | 0.00 | 0.00 | 76 | 993.7 |
| 20260505031557 | 68 | 227 | 0.0 | 0.0 | 0.00 | 0.00 | 0.00 | 73 | 993.5 |
| 20260505030057 | 70 | 250 | 0.0 | 0.0 | 0.00 | 0.00 | 0.00 | 69 | 993.2 |
| 20260505024604 | 72 | 281 | 0.0 | 0.0 | 0.00 | 0.00 | 0.00 | 67 | 993.0 |
| 20260505023106 | 74 | 262 | 0.0 | 0.0 | 0.00 | 0.00 | 0.00 | 65 | 992.9 |
| 20260505021557 | 74 | 252 | 0.0 | 4.0 | 0.00 | 0.00 | 0.00 | 64 | 992.9 |
| 20260505020056 | 75 | 284 | 3.0 | 10.0 | 0.00 | 0.00 | 0.00 | 62 | 992.8 |
| 20260505014554 | 76 | 302 | 0.0 | 0.0 | 0.00 | 0.00 | 0.00 | 60 | 992.8 |
| 20260505013053 | 77 | 253 | 0.0 | 0.0 | 0.00 | 0.00 | 0.00 | 57 | 992.8 |
| 20260505011559 | 78 | 283 | 0.0 | 8.0 | 0.00 | 0.00 | 0.00 | 54 | 992.9 |
| 20260505010054 | 78 | 304 | 0.0 | 6.0 | 0.00 | 0.00 | 0.00 | 54 | 993.0 |
| 20260505004554 | 78 | 285 | 0.0 | 0.0 | 0.00 | 0.00 | 0.00 | 53 | 993.0 |
| 20260505003050 | 78 | 294 | 0.0 | 0.0 | 0.00 | 0.00 | 0.00 | 51 | 992.8 |
| 20260505001549 | 78 | 212 | 0.0 | 0.0 | 0.00 | 0.00 | 0.00 | 53 | 992.8 |
| 20260505000050 | 78 | 273 | 0.0 | 8.0 | 0.00 | 0.00 | 0.00 | 53 | 992.9 |
| 20260504234612 | 79 | 303 | 0.0 | 6.0 | 0.00 | 0.00 | 0.00 | 50 | 992.9 |
| 20260504233050 | 79 | 333 | 0.0 | 6.0 | 0.00 | 0.00 | 0.00 | 53 | 993.0 |
| 20260504231554 | 79 | 300 | 0.0 | 7.0 | 0.00 | 0.00 | 0.00 | 57 | 993.1 |
| 20260504230045 | 78 | 338 | 2.0 | 7.0 | 0.00 | 0.00 | 0.00 | 56 | 993.2 |
| 20260504224545 | 79 | 18 | 0.0 | 0.0 | 0.00 | 0.00 | 0.00 | 52 | 993.4 |
| 20260504223043 | 79 | 336 | 0.0 | 0.0 | 0.00 | 0.00 | 0.00 | 53 | 993.5 |
| 20260504221549 | 78 | 238 | 1.0 | 6.0 | 0.00 | 0.00 | 0.00 | 53 | 993.6 |
| 20260504220041 | 77 | 252 | 0.0 | 6.0 | 0.00 | 0.00 | 0.00 | 54 | 993.8 |
| 20260504214542 | 77 | 174 | 0.0 | 6.0 | 0.00 | 0.00 | 0.00 | 50 | 993.9 |
| 20260504213039 | 76 | 274 | 0.0 | 1.0 | 0.00 | 0.00 | 0.00 | 56 | 993.9 |
| 20260504211539 | 77 | 295 | 3.0 | 9.0 | 0.00 | 0.00 | 0.00 | 52 | 994.0 |
| 20260504210033 | 76 | 117 | 0.0 | 3.0 | 0.00 | 0.00 | 0.00 | 59 | 994.0 |
| 20260504204611 | 75 | 277 | 0.0 | 3.0 | 0.00 | 0.00 | 0.00 | 57 | 994.0 |
| 20260504203032 | 76 | 266 | 0.0 | 6.0 | 0.00 | 0.00 | 0.00 | 55 | 994.1 |
| 20260504201530 | 76 | 255 | 1.0 | 4.0 | 0.00 | 0.00 | 0.00 | 58 | 994.2 |
| 20260504200035 | 76 | 278 | 0.0 | 7.0 | 0.00 | 0.00 | 0.00 | 60 | 994.2 |
| 20260504194528 | 74 | 261 | 0.0 | 5.0 | 0.00 | 0.00 | 0.00 | 59 | 994.4 |
| 20260504193026 | 75 | 323 | 0.0 | 4.0 | 0.00 | 0.00 | 0.00 | 57 | 994.4 |
| 20260504191528 | 75 | 244 | 0.0 | 2.0 | 0.00 | 0.00 | 0.00 | 59 | 994.5 |
| 20260504190023 | 74 | 245 | 0.0 | 5.0 | 0.00 | 0.00 | 0.00 | 61 | 994.6 |
| 20260504184521 | 73 | 262 | 0.0 | 7.0 | 0.00 | 0.00 | 0.00 | 64 | 994.7 |
| 20260504183020 | 72 | 232 | 0.0 | 0.0 | 0.00 | 0.00 | 0.00 | 62 | 994.8 |
| 20260504181518 | 72 | 250 | 0.0 | 0.0 | 0.00 | 0.00 | 0.00 | 62 | 994.8 |
| 20260504180016 | 71 | 245 | 0.0 | 3.0 | 0.00 | 0.00 | 0.00 | 66 | 994.8 |
| 20260504174512 | 69 | 176 | 0.0 | 0.0 | 0.00 | 0.00 | 0.00 | 66 | 994.7 |
| 20260504173009 | 68 | 265 | 0.0 | 0.0 | 0.00 | 0.00 | 0.00 | 64 | 994.7 |
| 20260504171531 | 68 | 302 | 0.0 | 6.0 | 0.00 | 0.00 | 0.00 | 67 | 994.8 |
| 20260504140133 | 51 | 64 | 0.0 | 0.0 | 0.00 | 0.00 | 0.00 | 91 | 993.6 |
| 20260504081503 | 51 | 71 | 0.0 | 0.0 | 0.00 | 0.00 | 0.00 | 92 | 993.3 |